�������l�o���
Date,Time,MP-1(��Sv/h),MP-2(��Sv/h),MP-3(��Sv/h),MP-4(��Sv/h),MP-5(��Sv/h),MP-6(��Sv/h),MP-7(��Sv/h),����,����(m/s),���J
2020/08/31,00:00,0.183,0.168,0.284,0.265,0.252,0.147,0.087,�k�k��,6.4,�L
2020/08/31,00:10,0.186,0.171,0.280,0.266,0.254,0.147,0.088,�k�k��,6.9,��
2020/08/31,00:20,0.186,0.169,0.279,0.263,0.250,0.145,0.089,�k�k��,7.0,��
2020/08/31,00:30,0.183,0.169,0.284,0.266,0.251,0.147,0.087,�k�k��,5.4,��
2020/08/31,00:40,0.184,0.170,0.282,0.266,0.253,0.145,0.086,�k�k��,6.8,��
2020/08/31,00:50,0.186,0.169,0.279,0.264,0.251,0.146,0.087,�k�k��,7.4,�L
2020/08/31,01:00,0.183,0.169,0.282,0.265,0.249,0.147,0.087,�k�k��,7.6,�L
2020/08/31,01:10,0.185,0.169,0.280,0.265,0.253,0.146,0.087,�k�k��,6.8,��
2020/08/31,01:20,0.185,0.167,0.279,0.264,0.250,0.145,0.087,�k�k��,6.4,��
2020/08/31,01:30,0.183,0.169,0.282,0.266,0.250,0.147,0.087,�k�k��,6.2,��
2020/08/31,01:40,0.184,0.169,0.280,0.264,0.252,0.147,0.086,�k,7.4,��
2020/08/31,01:50,0.184,0.168,0.282,0.262,0.251,0.145,0.087,�k�k��,7.7,��
2020/08/31,02:00,0.183,0.170,0.281,0.267,0.249,0.146,0.087,�k�k��,6.4,��
2020/08/31,02:10,0.186,0.169,0.278,0.264,0.251,0.146,0.086,�k�k��,7.3,�L
2020/08/31,02:20,0.184,0.169,0.280,0.264,0.250,0.145,0.087,�k�k��,7.1,��
2020/08/31,02:30,0.182,0.169,0.280,0.265,0.251,0.146,0.087,�k�k��,5.7,��
2020/08/31,02:40,0.185,0.168,0.280,0.261,0.252,0.146,0.087,�k,4.9,��
2020/08/31,02:50,0.184,0.169,0.280,0.264,0.248,0.145,0.087,�k,5.4,�L
2020/08/31,03:00,0.183,0.168,0.279,0.265,0.250,0.146,0.086,�k�k��,6.6,��
2020/08/31,03:10,0.185,0.168,0.282,0.261,0.251,0.146,0.087,�k,6.8,�L
2020/08/31,03:20,0.183,0.169,0.279,0.265,0.248,0.146,0.087,�k�k��,4.5,��
2020/08/31,03:30,0.183,0.168,0.279,0.263,0.252,0.145,0.087,�k�k��,5.6,��
2020/08/31,03:40,0.185,0.168,0.280,0.264,0.251,0.146,0.087,�k�k��,5.3,��
2020/08/31,03:50,0.182,0.169,0.278,0.265,0.248,0.145,0.087,�k�k��,5.7,��
2020/08/31,04:00,0.184,0.168,0.279,0.262,0.251,0.145,0.087,�k�k��,5.1,��
2020/08/31,04:10,0.185,0.170,0.281,0.266,0.250,0.145,0.086,�k�k��,5.7,�L
2020/08/31,04:20,0.183,0.169,0.278,0.266,0.248,0.145,0.086,�k�k��,5.4,�L
2020/08/31,04:30,0.184,0.168,0.280,0.263,0.252,0.146,0.088,�k�k��,5.5,��
2020/08/31,04:40,0.184,0.169,0.279,0.264,0.250,0.145,0.087,�k,7.2,��
2020/08/31,04:50,0.184,0.167,0.280,0.264,0.251,0.144,0.086,�k,6.8,��
2020/08/31,05:00,0.184,0.169,0.281,0.264,0.253,0.147,0.087,�k�k��,6.6,��
2020/08/31,05:10,0.183,0.169,0.278,0.264,0.248,0.146,0.087,�k�k��,5.5,�L
2020/08/31,05:20,0.183,0.168,0.281,0.262,0.252,0.146,0.087,�k,5.0,�L
2020/08/31,05:30,0.184,0.169,0.279,0.263,0.250,0.146,0.088,�k,3.7,�L
2020/08/31,05:40,0.181,0.169,0.280,0.264,0.249,0.145,0.087,�k,4.7,�L
2020/08/31,05:50,0.185,0.169,0.280,0.260,0.253,0.146,0.086,�k,5.1,��
2020/08/31,06:00,0.183,0.169,0.278,0.264,0.250,0.147,0.088,�k�k��,6.5,��
2020/08/31,06:10,0.182,0.169,0.280,0.262,0.249,0.146,0.087,�k,6.3,��
2020/08/31,06:20,0.185,0.169,0.280,0.263,0.251,0.146,0.087,�k�k��,6.2,��
2020/08/31,06:30,0.184,0.168,0.278,0.264,0.247,0.145,0.087,�k,6.4,��
2020/08/31,06:40,0.184,0.168,0.279,0.261,0.251,0.145,0.086,�k�k��,6.0,��
2020/08/31,06:50,0.185,0.168,0.277,0.264,0.251,0.145,0.086,�k�k��,7.3,��
2020/08/31,07:00,0.183,0.168,0.279,0.262,0.248,0.145,0.087,�k�k��,6.1,��
2020/08/31,07:10,0.183,0.168,0.279,0.261,0.249,0.144,0.086,�k�k��,7.3,��
2020/08/31,07:20,0.183,0.167,0.277,0.263,0.250,0.145,0.087,�k�k��,5.8,��
2020/08/31,07:30,0.183,0.167,0.279,0.261,0.247,0.146,0.088,�k�k��,5.4,��
2020/08/31,07:40,0.184,0.168,0.279,0.260,0.249,0.144,0.087,�k�k��,5.7,��
2020/08/31,07:50,0.184,0.169,0.276,0.263,0.251,0.144,0.086,�k�k��,5.4,��
2020/08/31,08:00,0.183,0.167,0.279,0.263,0.248,0.146,0.087,�k�k��,5.5,��
2020/08/31,08:10,0.182,0.168,0.280,0.261,0.246,0.145,0.086,�k�k��,6.6,��
2020/08/31,08:20,0.185,0.168,0.278,0.261,0.250,0.144,0.086,�k�k��,5.1,��
2020/08/31,08:30,0.183,0.167,0.279,0.263,0.251,0.145,0.086,�k,5.8,��
2020/08/31,08:40,0.182,0.167,0.280,0.261,0.249,0.146,0.086,�k�k��,5.0,��
2020/08/31,08:50,0.184,0.169,0.278,0.260,0.247,0.145,0.087,�k,4.6,�L
2020/08/31,09:00,0.183,0.169,0.276,0.263,0.250,0.144,0.085,�k,3.9,��
2020/08/31,09:10,0.182,0.167,0.281,0.264,0.250,0.145,0.086,�k,4.4,�L
2020/08/31,09:20,0.184,0.169,0.279,0.262,0.249,0.146,0.087,�k,4.2,�L
2020/08/31,09:30,0.183,0.169,0.277,0.260,0.247,0.146,0.087,�k,4.6,�L
2020/08/31,09:40,0.184,0.169,0.281,0.265,0.252,0.145,0.087,�k,5.1,�L
2020/08/31,09:50,0.186,0.170,0.280,0.262,0.250,0.146,0.088,�k,5.0,�L
2020/08/31,10:00,0.184,0.169,0.276,0.261,0.248,0.146,0.087,�k,6.5,��
2020/08/31,10:10,0.183,0.168,0.280,0.265,0.249,0.145,0.087,�k,7.5,��
2020/08/31,10:20,0.184,0.169,0.279,0.263,0.251,0.145,0.088,�k,7.4,��
2020/08/31,10:30,0.184,0.169,0.278,0.262,0.248,0.146,0.088,�k,7.6,�L
2020/08/31,10:40,0.183,0.167,0.278,0.262,0.248,0.145,0.086,�k,7.6,�L
2020/08/31,10:50,0.185,0.169,0.280,0.264,0.253,0.144,0.086,�k,6.6,��
2020/08/31,11:00,0.185,0.168,0.278,0.261,0.252,0.144,0.088,�k,7.5,�L
2020/08/31,11:10,0.182,0.167,0.279,0.261,0.249,0.146,0.086,�k,7.3,��
2020/08/31,11:20,0.185,0.169,0.281,0.264,0.247,0.145,0.085,�k,7.0,��
2020/08/31,11:30,0.184,0.167,0.278,0.262,0.251,0.145,0.087,�k,7.9,��
2020/08/31,11:40,0.182,0.167,0.277,0.261,0.251,0.146,0.086,�k,6.8,�L
2020/08/31,11:50,0.183,0.168,0.281,0.262,0.248,0.146,0.085,�k,7.3,��
2020/08/31,12:00,0.184,0.169,0.279,0.264,0.248,0.145,0.085,�k,6.9,��
2020/08/31,12:10,0.182,0.167,0.277,0.262,0.248,0.144,0.085,�k,7.8,��
2020/08/31,12:20,0.183,0.167,0.278,0.262,0.249,0.144,0.086,�k,9.6,��
2020/08/31,12:30,0.184,0.169,0.280,0.261,0.253,0.145,0.086,�k,7.4,�L
2020/08/31,12:40,0.183,0.169,0.280,0.262,0.251,0.146,0.085,�k,9.0,��
2020/08/31,12:50,0.182,0.167,0.276,0.264,0.249,0.146,0.086,�k,8.2,�L
2020/08/31,13:00,0.183,0.167,0.283,0.263,0.249,0.145,0.086,�k,7.9,�L
2020/08/31,13:10,0.184,0.170,0.279,0.262,0.253,0.145,0.087,�k,6.9,�L
2020/08/31,13:20,0.183,0.168,0.277,0.265,0.251,0.146,0.086,�k�k��,6.3,�L
2020/08/31,13:30,0.185,0.170,0.281,0.262,0.249,0.145,0.086,�k,7.2,�L
2020/08/31,13:40,0.185,0.169,0.280,0.261,0.253,0.145,0.086,�k,6.7,�L
2020/08/31,13:50,0.183,0.168,0.279,0.264,0.250,0.146,0.088,�k,6.7,�L
2020/08/31,14:00,0.184,0.169,0.282,0.261,0.248,0.146,0.087,�k,6.1,�L
2020/08/31,14:10,0.182,0.169,0.277,0.262,0.253,0.145,0.087,�k,6.6,�L
2020/08/31,14:20,0.184,0.168,0.282,0.264,0.251,0.147,0.087,�k�k��,6.7,�L
2020/08/31,14:30,0.185,0.170,0.279,0.262,0.250,0.146,0.087,�k�k��,6.6,�L
2020/08/31,14:40,0.182,0.167,0.279,0.262,0.252,0.145,0.087,�k�k��,7.3,�L
2020/08/31,14:50,0.185,0.169,0.280,0.263,0.250,0.146,0.087,�k�k��,6.6,�L
2020/08/31,15:00,0.182,0.168,0.278,0.261,0.250,0.145,0.088,�k�k��,7.3,�L
2020/08/31,15:10,0.185,0.168,0.281,0.263,0.251,0.146,0.088,�k�k��,7.8,�L
2020/08/31,15:20,0.185,0.170,0.278,0.262,0.250,0.149,0.089,�k�k��,6.2,�L
2020/08/31,15:30,0.184,0.170,0.279,0.263,0.252,0.147,0.089,�k�k��,7.2,�L
2020/08/31,15:40,0.186,0.171,0.280,0.263,0.251,0.147,0.090,�k�k��,8.6,�L
2020/08/31,15:50,0.184,0.169,0.278,0.260,0.251,0.150,0.091,�k�k��,7.3,�L
2020/08/31,16:00,0.184,0.171,0.279,0.264,0.253,0.148,0.091,�k�k��,8.1,�L
2020/08/31,16:10,0.186,0.170,0.278,0.262,0.251,0.149,0.091,�k�k��,7.9,�L
2020/08/31,16:20,0.184,0.170,0.279,0.260,0.251,0.148,0.090,�k�k��,7.6,�L
2020/08/31,16:30,0.184,0.170,0.277,0.263,0.252,0.147,0.089,�k�k��,7.2,�L
2020/08/31,16:40,0.183,0.168,0.278,0.260,0.250,0.148,0.090,�k�k��,7.0,�L
2020/08/31,16:50,0.184,0.169,0.279,0.261,0.252,0.147,0.090,�k�k��,7.3,�L
2020/08/31,17:00,0.184,0.168,0.276,0.259,0.249,0.148,0.090,�k�k��,5.9,�L
2020/08/31,17:10,0.182,0.169,0.277,0.260,0.249,0.148,0.089,�k,6.7,�L
2020/08/31,17:20,0.184,0.168,0.273,0.260,0.249,0.146,0.088,�k�k��,6.2,�L
2020/08/31,17:30,0.182,0.166,0.277,0.257,0.247,0.145,0.088,�k�k��,6.8,�L
2020/08/31,17:40,0.182,0.167,0.273,0.258,0.249,0.145,0.087,�k�k��,7.0,�L
2020/08/31,17:50,0.181,0.166,0.274,0.255,0.247,0.144,0.088,�k�k��,6.3,�L
2020/08/31,18:00,0.181,0.166,0.274,0.256,0.246,0.145,0.087,�k�k��,6.6,�L
2020/08/31,18:10,0.182,0.166,0.271,0.257,0.250,0.145,0.087,�k�k��,6.1,�L
2020/08/31,18:20,0.180,0.166,0.274,0.254,0.245,0.143,0.087,�k�k��,6.2,�L
2020/08/31,18:30,0.181,0.165,0.271,0.256,0.248,0.144,0.086,�k�k��,7.1,�L
2020/08/31,18:40,0.181,0.164,0.272,0.254,0.245,0.143,0.086,�k�k��,7.3,�L
2020/08/31,18:50,0.179,0.164,0.270,0.256,0.244,0.143,0.086,�k�k��,7.1,�L
2020/08/31,19:00,0.180,0.163,0.269,0.254,0.246,0.143,0.086,�k�k��,7.3,�L
2020/08/31,19:10,0.178,0.163,0.271,0.253,0.243,0.142,0.085,�k�k��,6.3,�L
2020/08/31,19:20,0.180,0.162,0.268,0.255,0.248,0.143,0.086,�k�k��,7.3,�L
2020/08/31,19:30,0.179,0.165,0.271,0.252,0.245,0.142,0.086,�k�k��,7.5,�L
2020/08/31,19:40,0.179,0.163,0.268,0.254,0.244,0.141,0.086,�k�k��,7.5,�L
2020/08/31,19:50,0.179,0.163,0.270,0.254,0.247,0.144,0.085,�k�k��,7.4,�L
2020/08/31,20:00,0.178,0.162,0.269,0.254,0.243,0.142,0.087,�k��,7.3,�L
2020/08/31,20:10,0.180,0.163,0.269,0.254,0.247,0.142,0.085,�k�k��,8.3,�L
2020/08/31,20:20,0.178,0.163,0.269,0.252,0.245,0.142,0.086,�k�k��,7.3,�L
2020/08/31,20:30,0.179,0.162,0.267,0.254,0.244,0.140,0.085,�k�k��,7.6,�L
2020/08/31,20:40,0.178,0.162,0.269,0.251,0.244,0.142,0.084,�k�k��,7.6,�L
2020/08/31,20:50,0.177,0.162,0.266,0.254,0.242,0.142,0.085,�k�k��,7.4,�L
2020/08/31,21:00,0.179,0.164,0.269,0.251,0.245,0.141,0.086,�k�k��,7.1,�L
2020/08/31,21:10,0.179,0.162,0.267,0.254,0.245,0.142,0.087,�k�k��,6.6,�L
2020/08/31,21:20,0.180,0.163,0.270,0.252,0.246,0.142,0.087,�k�k��,6.7,�L
2020/08/31,21:30,0.179,0.164,0.268,0.252,0.246,0.144,0.087,�k�k��,6.7,�L
2020/08/31,21:40,0.179,0.163,0.268,0.255,0.244,0.143,0.087,�k�k��,7.1,�L
2020/08/31,21:50,0.179,0.163,0.270,0.252,0.247,0.142,0.086,�k�k��,7.4,�L
2020/08/31,22:00,0.177,0.162,0.267,0.254,0.246,0.143,0.086,�k�k��,7.3,�L
2020/08/31,22:10,0.179,0.163,0.270,0.253,0.244,0.142,0.086,�k�k��,8.1,�L
2020/08/31,22:20,0.178,0.162,0.266,0.253,0.246,0.142,0.086,�k�k��,6.8,�L
2020/08/31,22:30,0.177,0.162,0.269,0.253,0.243,0.142,0.085,�k�k��,6.4,�L
2020/08/31,22:40,0.179,0.162,0.266,0.251,0.246,0.140,0.084,�k�k��,7.1,�L
2020/08/31,22:50,0.177,0.162,0.267,0.254,0.244,0.141,0.086,�k�k��,6.6,�L
2020/08/31,23:00,0.178,0.162,0.267,0.251,0.244,0.142,0.084,�k�k��,7.0,�L
2020/08/31,23:10,0.177,0.161,0.267,0.252,0.245,0.140,0.084,�k��,6.1,�L
2020/08/31,23:20,0.177,0.162,0.268,0.252,0.242,0.141,0.084,�k��,6.6,�L
2020/08/31,23:30,0.177,0.161,0.265,0.251,0.246,0.140,0.084,�k�k��,6.6,�L
2020/08/31,23:40,0.176,0.161,0.267,0.253,0.245,0.140,0.084,�k�k��,7.7,��
2020/08/31,23:50,0.177,0.161,0.266,0.250,0.243,0.140,0.084,�k�k��,7.7,�L
